Location: Campolattaro
(41.2833°N, 14.7333°E)
Time: 09:53:28
(UTC+00:00)

Spot 2 Rocket - Pass Details

Date: 19 May 2025
Orbit: 753 x 766 km, 98.3° (Epoch: 23 June)

Event Time Altitude Azimuth Distance (km) Brightness Sun altitude
Exits shadow 20:17:46 29° 173° (S) 1,353 4.3 -18.4°
Maximum altitude 20:20:22 81° 257° (WSW) 770 3.5 -18.7°
Drops below altitude 10° 20:25:25 10° 345° (NNW) 2,291 7.0 -19.3°
Sets 20:27:44 0° 346° (NNW) 3,222 7.9 -19.6°
